Change the Weather History Date:

Friday, February 1, 2013

  Actual Average Record
Temperature  
Mean Temperature 37 °F 43 °F  
Max Temperature 44 °F 53 °F 77 °F (1923)
Min Temperature 30 °F 33 °F 10 °F (1949)
Degree Days  
Heating Degree Days 28 22  
Month to date heating degree days 28 22  
Since 1 July heating degree days 1544 1811  
Cooling Degree Days 0 0  
Month to date cooling degree days 0 0  
Year to date cooling degree days 10 1  
Moisture  
Dew Point 23 °F    
Average Humidity 64    
Maximum Humidity 78    
Minimum Humidity 49    
Precipitation  
Precipitation 0.00 in 0.22 in 4.50 in (1951)
Month to date precipitation 0.00 0.22  
Year to date precipitation 9.11 5.19  
Sea Level Pressure  
Sea Level Pressure 30.45 in    
Wind  
Wind Speed 8 mph (NE)    
Max Wind Speed 20 mph    
Max Gust Speed 26 mph    
Visibility 10 miles    
Events      
T = Trace of Precipitation, MM = Missing Value Source: NWS Daily Summary

Daily Weather History Graph

Daily Weather History Graph

Search for Another Location

Airport or City:

Trip Planner

Search our weather history database for the weather conditions in past years. The results will help you decide how hot, cold, wet, or windy it might be!

Date:

Astronomy

Feb. 01, 2013 Rise Set
Actual Time 6:59 AM CST 5:35 PM CST
Civil Twilight 6:33 AM CST 6:01 PM CST
Nautical Twilight 6:04 AM CST 6:31 PM CST
Astronomical Twilight 5:34 AM CST 7:00 PM CST
Moon 11:21 PM CST (2/1) 9:53 AM CST (2/1)
Length of Visible Light 11h 28m
Length of Day
10h 35m
Waning Gibbous, 70% of the Moon is Illuminated
Feb 1
Waning Gibbous
Feb 3
Last Quarter
Feb 10
New
Feb 17
First Quarter
Feb 25
Full

Hourly Weather History & Observations

Time (CST) Temp. Windchill Dew Point Humidity Pressure Visibility Wind Dir Wind Speed Gust Speed Precip Events Conditions
12:53 AM 41.0 °F 33.9 °F 33.1 °F 73% 30.37 in 10.0 mi NNE 12.7 mph - N/A   Clear
1:53 AM 37.0 °F 27.4 °F 26.1 °F 65% 30.40 in 10.0 mi NNE 17.3 mph 26.5 mph N/A   Clear
2:53 AM 34.0 °F 26.6 °F 24.1 °F 67% 30.43 in 10.0 mi NNE 9.2 mph - N/A   Clear
3:53 AM 33.1 °F 26.1 °F 21.9 °F 64% 30.44 in 10.0 mi NNE 8.1 mph - N/A   Clear
4:53 AM 32.0 °F 21.6 °F 16.0 °F 52% 30.45 in 10.0 mi NNE 15.0 mph - N/A   Clear
5:53 AM 30.2 °F 20.8 °F 17.6 °F 60% 30.44 in 10.0 mi North 11.5 mph - N/A   Clear
6:53 AM 30.0 °F 20.5 °F 18.0 °F 61% 30.49 in 10.0 mi NNE 11.5 mph - N/A   Clear
7:53 AM 30.9 °F 21.2 °F 19.0 °F 61% 30.53 in 10.0 mi NE 12.7 mph - N/A   Clear
8:53 AM 32.0 °F 23.0 °F 19.9 °F 61% 30.54 in 10.0 mi NNE 11.5 mph - N/A   Clear
9:53 AM 34.0 °F 26.0 °F 19.0 °F 54% 30.56 in 10.0 mi NE 10.4 mph - N/A   Clear
10:53 AM 35.1 °F 27.9 °F 21.9 °F 59% 30.55 in 10.0 mi NNE 9.2 mph - N/A   Clear
11:53 AM 36.0 °F 31.1 °F 21.9 °F 57% 30.55 in 10.0 mi Variable 5.8 mph - N/A   Clear
12:53 PM 37.9 °F 33.5 °F 24.1 °F 57% 30.52 in 10.0 mi NNE 5.8 mph - N/A   Clear
1:53 PM 39.0 °F 32.3 °F 25.0 °F 57% 30.48 in 10.0 mi NE 10.4 mph - N/A   Clear
2:53 PM 39.9 °F 33.4 °F 24.1 °F 53% 30.46 in 10.0 mi NNE 10.4 mph - N/A   Clear
3:53 PM 39.9 °F 34.5 °F 24.1 °F 53% 30.44 in 10.0 mi NE 8.1 mph - N/A   Clear
4:53 PM 39.2 °F 34.2 °F 23.0 °F 52% 30.39 in 10.0 mi NE 6.9 mph - N/A   Clear
5:53 PM 36.0 °F 32.1 °F 26.1 °F 67% 30.40 in 10.0 mi NE 4.6 mph - N/A   Clear
6:53 PM 35.1 °F - 26.1 °F 70% 30.39 in 10.0 mi Calm Calm - N/A   Clear
7:53 PM 33.1 °F 28.7 °F 26.1 °F 75% 30.39 in 10.0 mi East 4.6 mph - N/A   Clear
8:53 PM 33.1 °F - 25.0 °F 72% 30.39 in 10.0 mi Calm Calm - N/A   Clear
9:53 PM 32.0 °F - 26.1 °F 79% 30.39 in 10.0 mi Calm Calm - N/A   Clear
10:53 PM 32.0 °F 28.7 °F 27.0 °F 82% 30.38 in 10.0 mi ENE 3.5 mph - N/A   Clear
11:53 PM 32.0 °F 24.8 °F 26.1 °F 79% 30.33 in 10.0 mi SE 8.1 mph - N/A   Clear